WAT9170 LICR-LGKR

Flight info

Callsign WAT9170
Flight time N/A
Altitude 18000
Route RCA L137 CDC/N0399F170 L869 GEMVI/N0392F160 DCT LATAN
Aircraft B722/M-SDFGHRWY/C

Departure

Time 2026-04-23 00:57
Airport Reggio Calabria Airport (LICR)

Arrival

Time N/A
Airport Corfu Ioannis Kapodistrias International Airport (LGKR)
Time Latitude Longitude Altitude Speed Heading
2026-04-23 00:08 38.07258 15.65357 71 ft 0 kts 118°
2026-04-23 00:44 38.07257 15.65357 71 ft 0 kts 118°
2026-04-23 00:46 38.07240 15.65363 71 ft 6 kts 208°
2026-04-23 00:46 38.07255 15.65308 70 ft 8 kts 320°
2026-04-23 00:47 38.07302 15.65272 71 ft 7 kts 332°
2026-04-23 00:47 38.07336 15.65236 71 ft 6 kts 279°
2026-04-23 00:47 38.07314 15.65170 69 ft 10 kts 244°
2026-04-23 00:47 38.07262 15.65085 65 ft 14 kts 198°
2026-04-23 00:48 38.07107 15.65164 58 ft 18 kts 153°
2026-04-23 00:48 38.06587 15.65502 54 ft 18 kts 153°
2026-04-23 00:48 38.06503 15.65601 59 ft 15 kts 120°
2026-04-23 00:48 38.06436 15.65611 59 ft 12 kts 274°
2026-04-23 00:49 38.06477 15.65573 57 ft 0 kts 333°
2026-04-23 00:49 38.06513 15.65550 56 ft 26 kts 333°
2026-04-23 00:49 38.06940 15.65269 53 ft 110 kts 333°
2026-04-23 00:50 38.07823 15.64687 93 ft 172 kts 330°
2026-04-23 00:50 38.08975 15.63840 389 ft 186 kts 327°
2026-04-23 00:50 38.09396 15.63503 328 ft 198 kts 327°
2026-04-23 00:50 38.09696 15.63254 371 ft 202 kts 326°
2026-04-23 00:56 38.09697 15.63255 371 ft 202 kts 326°
2026-04-23 00:57 38.10366 15.62685 728 ft 193 kts 325°
2026-04-23 00:57 38.11485 15.61583 1243 ft 213 kts 313°
2026-04-23 00:57 38.12246 15.60034 2259 ft 210 kts 290°
2026-04-23 00:57 38.12369 15.58250 3321 ft 213 kts 261°
2026-04-23 00:58 38.11690 15.56627 4387 ft 215 kts 223°
2026-04-23 00:58 38.10363 15.55906 5435 ft 217 kts 187°
2026-04-23 00:58 38.08888 15.55995 6388 ft 220 kts 177°
2026-04-23 00:58 38.07265 15.56325 6772 ft 253 kts 174°
2026-04-23 00:59 38.05453 15.56762 7374 ft 275 kts 173°
2026-04-23 00:59 38.03536 15.57253 8243 ft 286 kts 173°
2026-04-23 00:59 38.01564 15.57777 9073 ft 298 kts 173°
2026-04-23 00:59 37.99529 15.58344 9960 ft 307 kts 173°
2026-04-23 01:00 37.97443 15.59036 10805 ft 314 kts 172°
2026-04-23 01:00 37.95309 15.59069 11643 ft 306 kts 196°
2026-04-23 01:00 37.93137 15.59244 12510 ft 326 kts 168°
2026-04-23 01:00 37.91157 15.60667 13347 ft 341 kts 141°
2026-04-23 01:01 37.89748 15.63096 14170 ft 349 kts 114°
2026-04-23 01:01 37.89229 15.66071 14985 ft 348 kts 87°
2026-04-23 01:01 37.89693 15.68998 15769 ft 340 kts 60°
2026-04-23 01:01 37.91021 15.71366 16471 ft 329 kts 34°
2026-04-23 01:02 37.92900 15.72930 17182 ft 325 kts 27°
2026-04-23 01:02 37.94513 15.75014 17875 ft 341 kts 43°
2026-04-23 01:02 37.96148 15.77192 18571 ft 340 kts 37°
2026-04-23 01:02 37.97852 15.79284 19286 ft 344 kts 37°
2026-04-23 01:03 37.99582 15.81380 19963 ft 348 kts 36°
2026-04-23 01:03 38.01325 15.83483 20669 ft 351 kts 36°
2026-04-23 01:03 38.03122 15.85635 21304 ft 356 kts 36°
2026-04-23 01:03 38.04918 15.87790 21983 ft 359 kts 37°
2026-04-23 01:04 38.06755 15.89976 22504 ft 366 kts 36°
2026-04-23 01:04 38.08606 15.92180 23209 ft 367 kts 36°
2026-04-23 01:04 38.12373 15.96647 24411 ft 375 kts 36°
2026-04-23 01:05 38.14285 15.98924 25015 ft 377 kts 36°
2026-04-23 01:05 38.16204 16.01208 25586 ft 381 kts 36°
2026-04-23 01:05 38.18129 16.03508 26131 ft 386 kts 36°
2026-04-23 01:05 38.20084 16.05856 26678 ft 390 kts 36°
2026-04-23 01:06 38.22078 16.08253 27272 ft 392 kts 37°
2026-04-23 01:06 38.24062 16.10639 27770 ft 397 kts 36°
2026-04-23 01:06 38.26083 16.13075 28355 ft 399 kts 36°
2026-04-23 01:06 38.28083 16.15496 28864 ft 402 kts 37°
2026-04-23 01:07 38.30127 16.17966 29362 ft 405 kts 36°
2026-04-23 01:07 38.32157 16.20427 29832 ft 410 kts 36°
2026-04-23 01:07 38.34261 16.22983 29976 ft 423 kts 37°
2026-04-23 01:07 38.36424 16.25590 30032 ft 437 kts 36°
2026-04-23 01:08 38.38674 16.28291 30050 ft 453 kts 36°
2026-04-23 01:08 38.40164 16.30073 30052 ft 463 kts 36°